DW4862 Weather Reports


Display with metric or nautical units.
time (UTC)temp
F
wind
direction
speed
MPH
gust
MPH
rain 1hr
in
rain 24hr
in
rain mn
in
humidity
%
barometer
mb
20260510000007 78 205 0.0 0.0 0.00 0.04 0.04 56 1008.2
20260509234509 79 331 0.0 0.0 0.00 0.04 0.04 54 1008.2
20260509233005 78 199 0.0 1.0 0.00 0.04 0.04 54 1008.3
20260509231506 78 210 0.0 1.0 0.00 0.04 0.04 54 1008.2
20260509230004 79 201 0.0 2.0 0.00 0.04 0.04 52 1008.2
20260509224502 79 221 0.0 3.0 0.00 0.04 0.04 52 1008.1
20260509223002 79 18 0.0 4.0 0.00 0.04 0.04 51 1008.3
20260509221502 79 278 1.0 6.0 0.00 0.04 0.04 48 1008.0
20260509220105 79 284 0.0 8.0 0.00 0.04 0.04 48 1007.9
20260509214559 80 27 0.0 9.0 0.00 0.04 0.04 51 1007.8
20260509213104 79 320 0.0 4.0 0.00 0.04 0.04 52 1007.8
20260509211603 80 215 0.0 7.0 0.00 0.04 0.04 49 1007.9
20260509210100 79 211 0.0 4.0 0.00 0.04 0.04 49 1008.0
20260509204600 79 302 0.0 4.0 0.00 0.04 0.04 46 1008.2
20260509203053 79 204 0.0 4.0 0.00 0.04 0.04 49 1008.1
20260509201550 78 258 0.0 5.0 0.00 0.04 0.04 50 1008.3
20260509200048 78 223 0.0 4.0 0.00 0.04 0.04 54 1008.4
20260509194546 77 232 0.0 4.0 0.00 0.04 0.04 55 1008.4
20260509193045 77 225 0.0 3.0 0.00 0.04 0.04 58 1008.5
20260509191541 76 218 0.0 3.0 0.00 0.04 0.04 62 1008.7
20260509190038 74 211 0.0 4.0 0.00 0.04 0.04 63 1008.9
20260509184536 73 205 0.0 7.0 0.00 0.04 0.04 67 1009.0
20260509183032 72 326 0.0 4.0 0.00 0.04 0.04 68 1009.2
20260509181526 71 207 0.0 4.0 0.00 0.04 0.04 67 1009.4
20260509180025 71 212 2.0 4.0 0.00 0.04 0.04 69 1009.4
20260509174521 69 214 0.0 3.0 0.00 0.04 0.04 73 1009.6
20260509173019 69 220 0.0 3.0 0.00 0.04 0.04 74 1009.9
20260509171515 68 214 0.0 4.0 0.00 0.04 0.04 76 1010.1
20260509170015 67 203 0.0 3.0 0.00 0.04 0.04 75 1010.0
20260509164512 67 32 0.0 7.0 0.00 0.04 0.04 76 1010.2
20260509163017 66 271 0.0 4.0 0.00 0.04 0.04 79 1010.3
20260509161509 65 218 0.0 4.0 0.00 0.04 0.04 78 1010.1
20260509160003 64 208 0.0 3.0 0.00 0.04 0.04 80 1010.1
20260509154616 63 222 0.0 3.0 0.00 0.04 0.04 80 1010.0
20260509153058 63 213 0.0 3.0 0.00 0.04 0.04 83 1009.9
20260509151555 62 217 0.0 3.0 0.00 0.04 0.04 83 1009.5
20260509150052 62 221 0.0 2.0 0.00 0.04 0.04 84 1009.4
20260509144605 61 278 0.0 3.0 0.00 0.04 0.04 86 1009.5
20260509143052 61 217 0.0 3.0 0.00 0.04 0.04 87 1009.5
20260509141544 60 220 0.0 5.0 0.00 0.04 0.04 94 1009.5
20260509140057 58 213 0.0 2.0 0.00 0.04 0.04 94 1009.4
20260509134544 56 210 0.0 1.0 0.00 0.04 0.04 94 1009.5
20260509133040 55 214 0.0 1.0 0.00 0.04 0.04 95 1009.4
20260509131552 55 274 0.0 1.0 0.00 0.04 0.04 95 1009.2
20260509130038 54 274 0.0 0.0 0.00 0.04 0.04 95 1009.1
20260509124542 53 274 0.0 0.0 0.00 0.04 0.04 95 1009.2
20260509123037 53 274 0.0 0.0 0.00 0.04 0.04 95 1009.1
20260509121549 52 274 0.0 0.0 0.00 0.04 0.04 95 1009.1
20260509120037 51 274 0.0 0.0 0.00 0.04 0.04 95 1009.0
20260509114535 50 274 0.0 0.0 0.00 0.04 0.04 95 1008.8
20260509113034 50 274 0.0 0.0 0.00 0.04 0.04 95 1008.5
20260509111532 50 274 0.0 0.0 0.00 0.04 0.04 95 1008.5
20260509110032 50 274 0.0 0.0 0.00 0.04 0.04 95 1008.4
20260509104529 51 274 0.0 0.0 0.00 0.04 0.04 95 1008.2
20260509103027 51 274 0.0 0.0 0.00 0.04 0.04 95 1008.0
20260509101525 52 274 0.0 0.0 0.00 0.04 0.04 95 1007.9
20260509100028 52 274 0.0 0.0 0.00 0.04 0.04 95 1008.0
20260509094520 53 274 0.0 0.0 0.00 0.04 0.04 95 1007.9
20260509093018 53 274 0.0 0.0 0.00 0.04 0.04 95 1007.8
20260509091515 54 274 0.0 0.0 0.00 0.04 0.04 95 1007.7
20260509090014 55 274 0.0 0.0 0.00 0.04 0.04 95 1007.5
20260509084515 55 274 0.0 0.0 0.00 0.04 0.04 95 1007.3
20260509083009 56 274 0.0 0.0 0.01 0.04 0.04 95 1007.1
20260509081507 56 274 0.0 0.0 0.02 0.04 0.04 95 1007.2
20260509080004 56 274 0.0 0.0 0.03 0.04 0.04 95 1007.5
20260509074603 56 274 0.0 0.0 0.04 0.04 0.04 95 1007.9
20260509073058 57 274 0.0 0.0 0.03 0.03 0.03 94 1008.1
20260509071556 57 275 0.0 0.0 0.02 0.02 0.02 94 1008.6
20260509070053 57 276 0.0 1.0 0.01 0.01 0.01 94 1008.9
20260509064550 57 279 0.0 1.0 0.00 0.00 0.00 94 1009.1
20260509063101 57 280 0.0 0.0 0.00 0.00 0.00 93 1009.1
20260509061548 58 280 0.0 1.0 0.00 0.00 0.00 93 1009.3
20260509060052 58 281 0.0 1.0 0.00 0.00 0.00 92 1009.6
20260509054544 58 281 0.0 1.0 0.00 0.00 0.00 91 1009.8
20260509053107 58 281 0.0 0.0 0.00 0.00 0.00 91 1009.6
20260509051541 58 281 0.0 0.0 0.00 0.00 0.00 91 1009.4
20260509050037 59 281 0.0 0.0 0.00 0.00 0.00 91 1009.2
20260509044535 59 281 0.0 3.0 0.00 0.00 0.00 90 1009.1
20260509043041 60 213 0.0 1.0 0.00 0.00 0.00 90 1009.2
20260509041543 60 213 0.0 1.0 0.00 0.00 0.00 89 1008.9
20260509040033 61 213 0.0 0.0 0.00 0.00 0.00 88 1009.0
20260509034532 61 212 0.0 1.0 0.00 0.00 0.00 86 1008.9
20260509033031 62 213 0.0 1.0 0.00 0.00 0.00 83 1008.8
20260509031531 62 213 0.0 0.0 0.00 0.00 0.00 80 1008.8
20260509030028 63 212 0.0 0.0 0.00 0.00 0.00 77 1008.8
20260509024527 63 212 0.0 0.0 0.00 0.00 0.00 73 1008.7
20260509023025 64 212 0.0 0.0 0.00 0.00 0.00 70 1008.5
20260509021525 64 213 0.0 0.0 0.00 0.00 0.00 68 1008.5
20260509020025 65 213 0.0 0.0 0.00 0.00 0.00 68 1008.5
20260509014521 65 212 0.0 0.0 0.00 0.00 0.00 65 1008.3
20260509013021 66 212 0.0 0.0 0.00 0.00 0.00 65 1008.4
20260509011527 67 213 0.0 0.0 0.00 0.00 0.00 64 1008.4
20260509010036 67 211 0.0 0.0 0.00 0.00 0.00 62 1008.3
20260509004525 67 212 0.0 1.0 0.00 0.00 0.00 61 1008.3
20260509003018 68 212 0.0 2.0 0.00 0.00 0.00 61 1008.3
20260509001517 68 213 0.0 2.0 0.00 0.00 0.00 61 1008.0